1484319601.04,40533,6.25,71446.8,-9.71,-11.55,-11.51,0,*5A
1484319602.3,40534,6.19,71442.8,-9.71,-11.67,-11.67,0,*59
1484319603.55,40535,6.25,71448.0,-9.67,-11.67,-11.67,0,*5F
1484319604.81,40536,6.19,71446.3,-9.67,-11.67,-11.67,0,*5C
1484319606.06,40537,6.19,71446.0,-9.67,-11.67,-11.63,0,*59
1484319607.31,40538,6.19,71442.8,-9.71,-11.67,-11.77,0,*54
1484319608.57,40539,6.19,71444.3,-9.67,-11.67,-11.63,0,*57
1484319609.83,40540,6.25,71446.5,-9.71,-11.67,-11.67,0,*5A
1484319611.08,40541,6.19,71446.3,-9.71,-11.67,-11.67,0,*5B
1484319612.34,40542,6.25,71442.8,-9.67,-11.67,-11.63,0,*5B
1484319613.6,40543,6.25,71442.8,-9.71,-11.55,-11.63,0,*5C
1484319614.85,40544,6.19,71442.3,-9.71,-11.55,-11.67,0,*5F
1484319616.11,40545,6.19,71442.3,-9.71,-11.67,-11.67,0,*5F
1484319617.36,40546,6.19,71444.3,-9.67,-11.67,-11.67,0,*5B
1484319618.62,40547,6.19,71444.3,-9.67,-11.67,-11.63,0,*5E
1484319619.88,40548,6.25,71446.8,-9.71,-11.63,-11.63,0,*52
1484319621.1,40549,6.19,71444.3,-9.67,-11.51,-11.45,0,*51
1484319622.35,40550,6.19,71442.5,-9.71,-11.67,-11.77,0,*5A
1484319623.6,40551,6.19,71444.0,-9.71,-11.67,-11.77,0,*5B
1484319624.86,40552,6.19,71446.0,-9.71,-11.67,-11.67,0,*59
1484319626.11,40553,6.25,71446.8,-9.71,-11.77,-11.67,0,*59
1484319627.36,40554,6.19,71442.0,-9.71,-11.77,-11.81,0,*56
1484319628.61,40555,6.25,71446.5,-9.71,-11.55,-11.63,0,*5B
1484319629.86,40556,6.19,71444.0,-9.71,-11.51,-11.51,0,*5D
1484319631.12,40557,6.19,71440.8,-9.71,-11.55,-11.55,0,*5C
1484319632.37,40558,6.19,71444.8,-9.71,-11.67,-11.63,0,*57
1484319633.63,40559,6.19,71442.8,-9.71,-11.67,-11.63,0,*56
1484319634.89,40560,6.19,71444.3,-9.71,-11.63,-11.55,0,*5D
1484319636.15,40561,6.25,71444.5,-9.71,-11.63,-11.63,0,*59
1484319637.4,40562,6.19,71442.3,-9.71,-11.51,-11.51,0,*5A
1484319638.65,40563,6.19,71440.8,-9.71,-11.55,-11.55,0,*5B
1484319639.9,40564,6.19,71446.5,-9.67,-11.55,-11.55,0,*5B
1484319641.16,40565,6.19,71440.5,-9.67,-11.51,-11.63,0,*5B
1484319642.41,40566,6.25,71446.3,-9.71,-11.67,-11.67,0,*5E
1484319643.67,40567,6.25,71444.5,-9.67,-11.63,-11.63,0,*58
1484319644.93,40568,6.19,71440.3,-9.71,-11.55,-11.63,0,*55
1484319646.16,40569,6.19,71444.3,-9.71,-11.45,-11.55,0,*50
1484319647.42,40570,6.25,71444.3,-9.67,-11.63,-11.67,0,*5A
1484319648.68,40571,6.25,71446.5,-9.71,-11.67,-11.63,0,*5C
1484319649.93,40572,6.19,71444.8,-9.71,-11.67,-11.67,0,*5B
1484319651.18,40573,6.25,71442.3,-9.71,-11.67,-11.81,0,*52
1484319652.43,40574,6.19,71438.8,-9.71,-11.77,-11.81,0,*54
1484319653.67,40575,6.25,71442.5,-9.71,-11.77,-11.77,0,*5C
1484319654.92,40576,6.19,71442.3,-9.71,-11.77,-11.77,0,*5F
1484319656.17,40577,6.25,71444.5,-9.71,-11.81,-11.77,0,*57
1484319657.42,40578,6.25,71446.3,-9.71,-11.67,-11.67,0,*51
1484319658.68,40579,6.19,71442.8,-9.71,-11.63,-11.55,0,*55
1484319659.93,40580,6.19,71442.5,-9.71,-11.51,-11.51,0,*56
1484319661.18,40581,6.19,71446.5,-9.71,-11.51,-11.55,0,*53
1484319662.43,40582,6.19,71444.8,-9.71,-11.55,-11.55,0,*54
1484319663.68,40583,6.25,71446.3,-9.71,-11.67,-11.67,0,*55
1484319664.94,40584,6.25,71444.3,-9.71,-11.63,-11.67,0,*56
1484319666.2,40585,6.19,71446.8,-9.71,-11.55,-11.63,0,*56
1484319667.46,40586,6.19,71448.3,-9.71,-11.55,-11.63,0,*55
1484319668.71,40587,6.19,71450.3,-9.71,-11.55,-11.55,0,*51
1484319669.97,40588,6.25,71448.0,-9.71,-11.63,-11.67,0,*5A
1484319671.23,40589,6.19,71446.3,-9.71,-11.63,-11.63,0,*5F
1484319672.5,40590,6.25,71440.0,-9.73,-11.73,-11.73,0,*55
1484319673.75,40591,6.25,71440.3,-9.71,-11.77,-11.77,0,*56
1484319675.0,40592,6.19,71436.5,-9.71,-11.63,-11.67,0,*51
1484319676.26,40593,6.25,71440.0,-9.71,-11.63,-11.63,0,*54
1484319677.52,40594,6.25,71444.0,-9.71,-11.67,-11.67,0,*53
1484319678.77,40595,6.19,71442.3,-9.71,-11.67,-11.77,0,*53
1484319680.02,40596,6.19,71438.5,-9.67,-11.67,-11.81,0,*5E
1484319681.26,40597,6.19,71440.8,-9.71,-11.77,-11.77,0,*50
1484319682.52,40598,6.19,71440.3,-9.75,-11.59,-11.67,0,*56
1484319683.78,40599,6.19,71438.5,-9.71,-11.55,-11.55,0,*5E
1484319685.03,40600,6.19,71438.5,-9.71,-11.63,-11.55,0,*58
1484319686.31,40601,6.19,71442.8,-9.73,-11.67,-11.73,0,*5B
1484319687.59,40602,6.19,71442.3,-9.73,-11.59,-11.73,0,*55
1484319688.85,40603,6.25,71446.5,-9.71,-11.55,-11.67,0,*5F
1484319690.09,40604,6.19,71442.5,-9.71,-11.77,-11.77,0,*59
1484319691.34,40605,6.19,71442.5,-9.71,-11.67,-11.77,0,*59
1484319692.62,40606,6.19,71440.5,-9.73,-11.67,-11.59,0,*54
1484319693.9,40607,6.19,71442.5,-9.73,-11.67,-11.73,0,*5D
1484319695.18,40608,6.25,71442.8,-9.73,-11.59,-11.59,0,*57
1484319696.44,40609,6.19,71440.5,-9.71,-11.55,-11.55,0,*54
1484319697.71,40610,6.19,71440.8,-9.73,-11.73,-11.73,0,*5E
1484319698.99,40611,6.19,71440.8,-9.73,-11.85,-11.81,0,*5B
1484319700.26,40612,6.25,71444.8,-9.73,-11.85,-11.85,0,*5C
1484319701.53,40613,6.19,71442.5,-9.73,-11.81,-11.81,0,*5D
1484319702.78,40614,6.19,71442.5,-9.75,-11.81,-11.67,0,*54
1484319704.04,40615,6.25,71446.5,-9.71,-11.63,-11.67,0,*5D
1484319705.32,40616,6.25,71446.0,-9.73,-11.59,-11.73,0,*50
1484319706.59,40617,6.19,71444.0,-9.73,-11.73,-11.73,0,*59
1484319707.87,40618,6.19,71442.0,-9.73,-11.73,-11.81,0,*5B
1484319709.14,40619,6.25,71444.5,-9.73,-11.67,-11.81,0,*5F
1484319710.42,40620,6.19,71442.5,-9.73,-11.73,-11.73,0,*5D
1484319711.69,40621,6.25,71444.5,-9.73,-11.81,-11.81,0,*5C
1484319712.96,40622,6.19,71444.0,-9.73,-11.81,-11.85,0,*5B
1484319714.23,40623,6.19,71442.5,-9.73,-11.73,-11.81,0,*53
1484319715.51,40624,6.25,71446.5,-9.73,-11.67,-11.67,0,*59
1484319716.79,40625,6.19,71444.3,-9.73,-11.73,-11.73,0,*58
1484319718.07,40626,6.25,71444.8,-9.73,-11.67,-11.67,0,*5B
1484319719.35,40627,6.25,71446.5,-9.73,-11.59,-11.67,0,*57
1484319720.61,40628,6.25,71446.0,-9.75,-11.59,-11.67,0,*5E
1484319721.89,40629,6.25,71444.8,-9.73,-11.67,-11.67,0,*54
1484319723.17,40630,6.25,71446.8,-9.73,-11.67,-11.59,0,*51
1484319724.44,40631,6.19,71446.3,-9.73,-11.73,-11.81,0,*50
1484319725.72,40632,6.19,71444.3,-9.73,-11.73,-11.67,0,*5B
1484319726.99,40633,6.25,71448.3,-9.73,-11.73,-11.73,0,*5F
1484319728.26,40634,6.25,71446.8,-9.73,-11.73,-11.81,0,*55
1484319729.51,40635,6.25,71444.3,-9.71,-11.63,-11.77,0,*5E
1484319730.8,40636,6.25,71444.5,-9.73,-11.59,-11.67,0,*57
1484319732.07,40637,6.19,71444.3,-9.73,-11.73,-11.73,0,*5B
1484319733.35,40638,6.25,71450.3,-9.73,-11.73,-11.73,0,*54
1484319734.62,40639,6.19,71444.3,-9.73,-11.59,-11.59,0,*55
1484319735.9,40640,6.19,71446.0,-9.73,-11.55,-11.59,0,*57
1484319737.16,40641,6.19,71444.8,-9.75,-11.59,-11.67,0,*51
1484319738.44,40642,6.19,71446.8,-9.73,-11.59,-11.67,0,*54
1484319739.7,40643,6.25,71448.3,-9.71,-11.63,-11.67,0,*5E
1484319740.98,40644,6.19,71444.8,-9.73,-11.55,-11.67,0,*5E
1484319742.26,40645,6.19,71442.8,-9.73,-11.59,-11.73,0,*56
1484319743.54,40646,6.25,71448.8,-9.73,-11.67,-11.73,0,*58
1484319744.82,40647,6.19,71444.8,-9.73,-11.67,-11.67,0,*5C
1484319746.1,40648,6.25,71448.8,-9.73,-11.59,-11.59,0,*53
1484319747.38,40649,6.25,71450.5,-9.73,-11.73,-11.73,0,*52
1484319748.65,40650,6.25,71446.3,-9.73,-11.73,-11.81,0,*57
1484319749.93,40651,6.19,71444.3,-9.73,-11.67,-11.59,0,*56
1484319751.21,40652,6.25,71446.3,-9.73,-11.67,-11.73,0,*5D
1484319752.48,40653,6.25,71448.5,-9.73,-11.73,-11.81,0,*54
1484319753.75,40654,6.25,71444.0,-9.73,-11.73,-11.73,0,*5E
1484319755.03,40655,6.19,71444.3,-9.73,-11.73,-11.67,0,*5A
1484319756.31,40656,6.25,71446.0,-9.73,-11.59,-11.67,0,*51
1484319757.59,40657,6.19,71446.0,-9.73,-11.67,-11.73,0,*58
1484319758.84,40658,6.25,71450.8,-9.75,-11.73,-11.67,0,*51
1484319760.12,40659,6.19,71444.0,-9.73,-11.73,-11.73,0,*53
1484319761.39,40660,6.25,71446.8,-9.73,-11.73,-11.67,0,*5C
1484319762.67,40661,6.25,71444.0,-9.73,-11.59,-11.67,0,*55
1484319763.96,40662,6.19,71446.3,-9.73,-11.67,-11.67,0,*5B
1484319765.23,40663,6.25,71446.0,-9.73,-11.81,-11.81,0,*5A
1484319766.5,40664,6.25,71444.5,-9.73,-11.81,-11.81,0,*5D
1484319767.78,40665,6.19,71444.3,-9.73,-11.67,-11.67,0,*5C
1484319769.06,40666,6.25,71448.0,-9.73,-11.55,-11.59,0,*53
1484319770.31,40667,6.25,71450.0,-9.75,-11.55,-11.59,0,*54
1484319771.57,40668,6.25,71450.0,-9.75,-11.67,-11.67,0,*57
1484319772.85,40669,6.25,71450.3,-9.73,-11.73,-11.67,0,*55
1484319774.13,40670,6.19,71444.8,-9.73,-11.67,-11.67,0,*58
1484319775.39,40671,6.25,71450.0,-9.75,-11.67,-11.73,0,*5A
1484319776.67,40672,6.25,71448.0,-9.73,-11.67,-11.67,0,*5A
1484319777.92,40673,6.25,71444.8,-9.75,-11.73,-11.67,0,*58
1484319779.2,40674,6.19,71446.3,-9.73,-11.59,-11.67,0,*51
1484319780.46,40675,6.19,71442.3,-9.75,-11.67,-11.73,0,*5E
1484319781.71,40676,6.25,71446.3,-9.75,-11.73,-11.67,0,*5D
1484319782.97,40677,6.25,71446.5,-9.75,-11.67,-11.67,0,*59
1484319784.22,40678,6.25,71446.0,-9.75,-11.59,-11.59,0,*56
1484319785.5,40679,6.19,71446.5,-9.73,-11.59,-11.59,0,*51
1484319786.78,40680,6.25,71448.8,-9.73,-11.67,-11.59,0,*5A
1484319788.06,40681,6.19,71446.5,-9.73,-11.55,-11.55,0,*56
1484319789.32,40682,6.25,71446.5,-9.75,-11.55,-11.59,0,*5F
1484319790.57,40683,6.19,71446.8,-9.75,-11.59,-11.59,0,*52
1484319791.85,40684,6.19,71442.3,-9.73,-11.67,-11.67,0,*53
1484319793.14,40685,6.19,71438.0,-9.73,-11.59,-11.55,0,*5E
1484319794.39,40686,6.25,71440.0,-9.75,-11.59,-11.59,0,*57
1484319795.67,40687,6.25,71446.3,-9.73,-11.73,-11.73,0,*50
1484319796.94,40688,6.25,71442.8,-9.73,-11.73,-11.67,0,*5A
1484319798.2,40689,6.25,71444.8,-9.75,-11.59,-11.67,0,*55
1484319799.48,40690,6.25,71442.8,-9.73,-11.55,-11.55,0,*56
1484319800.74,40691,6.25,71446.0,-9.75,-11.55,-11.67,0,*50
1484319802.01,40692,6.25,71446.3,-9.73,-11.73,-11.59,0,*5C
1484319803.26,40693,6.19,71440.5,-9.75,-11.81,-11.81,0,*53
1484319804.53,40694,6.25,71444.0,-9.73,-11.85,-11.81,0,*56
1484319805.81,40695,6.25,71442.8,-9.73,-11.73,-11.85,0,*5A
1484319807.06,40696,6.25,71444.5,-9.75,-11.81,-11.73,0,*5B
1484319808.32,40697,6.25,71444.5,-9.75,-11.67,-11.67,0,*57
1484319809.57,40698,6.25,71440.8,-9.75,-11.85,-11.85,0,*58
1484319810.84,40699,6.25,71444.3,-9.73,-11.81,-11.81,0,*5F
1484319812.09,40700,6.19,71440.8,-9.75,-11.81,-11.73,0,*55
1484319813.34,40701,6.25,71444.0,-9.75,-11.81,-11.81,0,*59
1484319814.58,40702,6.25,71448.5,-9.75,-11.81,-11.81,0,*5A
1484319815.85,40703,6.25,71450.5,-9.73,-11.81,-11.81,0,*5D
1484319817.11,40704,6.25,71450.3,-9.75,-11.85,-11.85,0,*5C
1484319818.36,40705,6.25,71446.5,-9.75,-11.67,-11.67,0,*5D
1484319819.65,40706,6.25,71448.0,-9.77,-11.77,-11.85,0,*51
1484319820.91,40707,6.25,71446.8,-9.75,-11.67,-11.67,0,*5F
1484319822.18,40708,6.25,71450.3,-9.73,-11.81,-11.73,0,*5B
1484319823.43,40709,6.25,71446.8,-9.75,-11.73,-11.81,0,*5C
1484319824.68,40710,6.25,71448.0,-9.75,-11.59,-11.55,0,*55
1484319825.96,40711,6.25,71444.3,-9.77,-11.73,-11.73,0,*5A
1484319827.25,40712,6.25,71448.0,-9.77,-11.77,-11.73,0,*5D
1484319828.53,40713,6.25,71446.8,-9.77,-11.77,-11.77,0,*58
1484319829.81,40714,6.19,71446.3,-9.77,-11.85,-11.85,0,*5F
1484319831.09,40715,6.25,71450.0,-9.77,-11.73,-11.73,0,*5E
1484319832.37,40716,6.19,71440.8,-9.77,-11.73,-11.77,0,*59
1484319833.65,40717,6.25,71442.3,-9.77,-11.73,-11.73,0,*5C
1484319834.93,40718,6.25,71442.8,-9.77,-11.77,-11.77,0,*53
1484319836.21,40719,6.25,71440.8,-9.77,-11.73,-11.77,0,*56
1484319837.49,40720,6.25,71444.5,-9.77,-11.73,-11.77,0,*5C
1484319838.75,40721,6.25,71446.0,-9.75,-11.63,-11.67,0,*5F
1484319840.03,40722,6.25,71440.5,-9.77,-11.73,-11.85,0,*53
1484319841.31,40723,6.25,71442.5,-9.77,-11.59,-11.59,0,*5B
1484319842.57,40724,6.25,71440.8,-9.75,-11.55,-11.59,0,*52
1484319843.82,40725,6.25,71444.0,-9.75,-11.73,-11.73,0,*5F
1484319845.07,40726,6.25,71444.8,-9.75,-11.81,-11.85,0,*58
1484319846.32,40727,6.25,71442.8,-9.75,-11.85,-11.81,0,*59
1484319847.6,40728,6.25,71444.3,-9.77,-11.73,-11.73,0,*50
1484319848.88,40729,6.25,71442.5,-9.77,-11.77,-11.77,0,*51
1484319850.13,40730,6.25,71446.8,-9.79,-11.77,-11.77,0,*57
1484319851.41,40731,6.25,71446.8,-9.77,-11.77,-11.77,0,*58
1484319852.7,40732,6.25,71448.8,-9.77,-11.77,-11.85,0,*56
1484319853.98,40733,6.19,71446.5,-9.77,-11.77,-11.77,0,*5A
1484319855.23,40734,6.25,71444.8,-9.79,-11.77,-11.77,0,*53
1484319856.49,40735,6.25,71444.8,-9.79,-11.63,-11.63,0,*52
1484319857.75,40736,6.25,71448.3,-9.79,-11.73,-11.63,0,*50
1484319859.0,40737,6.25,71444.3,-9.79,-11.63,-11.59,0,*59
1484319860.26,40738,6.25,71444.0,-9.79,-11.59,-11.59,0,*5F
1484319861.51,40739,6.25,71444.8,-9.79,-11.73,-11.85,0,*57
1484319862.76,40740,6.25,71448.5,-9.79,-11.77,-11.77,0,*50
1484319864.05,40741,6.25,71446.8,-9.77,-11.63,-11.73,0,*5E
1484319865.31,40742,6.25,71450.3,-9.79,-11.63,-11.73,0,*53
1484319866.56,40743,6.25,71446.8,-9.79,-11.73,-11.73,0,*53
1484319867.81,40744,6.19,71444.0,-9.79,-11.73,-11.73,0,*54
1484319869.09,40745,6.25,71448.5,-9.77,-11.77,-11.77,0,*5B
1484319870.35,40746,6.25,71456.0,-9.79,-11.73,-11.63,0,*57
1484319871.63,40747,6.25,71456.0,-9.77,-11.73,-11.63,0,*58
1484319872.89,40748,6.25,71454.0,-9.79,-11.63,-11.73,0,*59
1484319874.15,40749,6.25,71454.8,-9.79,-11.63,-11.73,0,*58
1484319875.41,40750,6.25,71448.5,-9.79,-11.63,-11.63,0,*51
1484319876.66,40751,6.19,71444.0,-9.79,-11.73,-11.77,0,*54
1484319877.92,40752,6.19,71440.0,-9.79,-11.59,-11.63,0,*5A
1484319879.18,40753,6.25,71442.5,-9.79,-11.63,-11.73,0,*53
1484319880.43,40754,6.25,71442.3,-9.79,-11.77,-11.73,0,*51
1484319881.68,40755,6.25,71440.0,-9.79,-11.73,-11.77,0,*50
1484319882.95,40756,6.25,71440.8,-9.83,-11.67,-11.77,0,*53
1484319884.2,40757,6.19,71442.0,-9.81,-11.77,-11.77,0,*51
1484319885.47,40758,6.25,71450.5,-9.83,-11.81,-11.77,0,*55
1484319886.72,40759,6.25,71448.0,-9.81,-11.77,-11.81,0,*56
1484319887.97,40760,6.25,71448.3,-9.81,-11.81,-11.77,0,*5C
1484319889.22,40761,6.25,71448.5,-9.81,-11.63,-11.67,0,*50
1484319890.51,40762,6.25,71444.0,-9.83,-11.67,-11.63,0,*51
1484319891.76,40763,6.25,71444.3,-9.81,-11.67,-11.77,0,*57
1484319893.01,40764,6.25,71446.5,-9.79,-11.77,-11.77,0,*56
1484319894.26,40765,6.25,71440.0,-9.81,-11.77,-11.81,0,*59
1484319895.5,40766,6.25,71446.3,-9.81,-11.81,-11.81,0,*53
1484319896.76,40767,6.19,71442.0,-9.81,-11.67,-11.77,0,*53
1484319898.03,40768,6.19,71442.0,-9.83,-11.77,-11.81,0,*56
1484319899.28,40769,6.25,71444.0,-9.81,-11.77,-11.81,0,*55
1484319900.55,40770,6.25,71446.3,-9.83,-11.77,-11.81,0,*5F
1484319901.8,40771,6.25,71444.5,-9.81,-11.81,-11.81,0,*55
1484319903.07,40772,6.25,71442.3,-9.83,-11.77,-11.81,0,*5D
1484319904.32,40773,6.25,71446.3,-9.81,-11.77,-11.77,0,*57
1484319905.57,40774,6.25,71446.3,-9.81,-11.77,-11.81,0,*59
1484319906.81,40775,6.25,71444.3,-9.81,-11.77,-11.81,0,*58
1484319908.07,40776,6.25,71446.5,-9.81,-11.67,-11.77,0,*53
1484319909.32,40777,6.25,71442.8,-9.81,-11.77,-11.77,0,*53
1484319910.58,40778,6.25,71442.3,-9.83,-11.81,-11.81,0,*5E
1484319911.85,40779,6.25,71442.3,-9.83,-11.81,-11.81,0,*5F
1484319913.1,40780,6.19,71440.3,-9.81,-11.77,-11.77,0,*5B
1484319914.35,40781,6.25,71442.8,-9.81,-11.81,-11.81,0,*5A
1484319915.62,40782,6.25,71444.0,-9.83,-11.67,-11.77,0,*5A
1484319916.9,40783,6.25,71440.8,-9.83,-11.67,-11.77,0,*5B
1484319918.18,40784,6.25,71440.8,-9.83,-11.77,-11.67,0,*5C
1484319919.44,40785,6.25,71440.5,-9.83,-11.81,-11.81,0,*5C
1484319920.71,40786,6.25,71440.5,-9.83,-11.81,-11.81,0,*5F
1484319921.96,40787,6.25,71448.8,-9.81,-11.89,-11.81,0,*54
1484319923.23,40788,6.25,71444.0,-9.83,-11.81,-11.81,0,*51
1484319924.5,40789,6.25,71440.8,-9.83,-11.81,-11.81,0,*50
1484319925.74,40790,6.25,71442.5,-9.81,-11.81,-11.77,0,*53
1484319927.01,40791,6.25,71440.0,-9.83,-11.81,-11.81,0,*59
1484319928.27,40792,6.25,71440.0,-9.85,-12.07,-11.97,0,*56
1484319929.54,40793,6.19,71438.8,-9.83,-11.77,-11.77,0,*5B
1484319930.81,40794,6.19,71440.8,-9.85,-11.93,-11.97,0,*5E
1484319932.08,40795,6.25,71446.0,-9.83,-11.89,-11.89,0,*5D
1484319933.36,40796,6.19,71440.8,-9.83,-11.89,-11.77,0,*5F
1484319934.64,40797,6.19,71440.8,-9.87,-11.93,-11.97,0,*5F
1484319935.9,40798,6.25,71440.8,-9.85,-11.81,-11.85,0,*52
1484319937.15,40799,6.25,71446.5,-9.85,-11.81,-11.81,0,*57
1484319938.4,40800,6.25,71444.5,-9.85,-11.85,-11.85,0,*58
1484319939.65,40801,6.25,71446.0,-9.85,-11.85,-11.81,0,*5D
1484319940.9,40802,6.25,71446.0,-9.85,-11.81,-11.81,0,*5A
1484319942.17,40803,6.25,71442.0,-9.87,-11.81,-11.85,0,*5D
1484319943.45,40804,6.25,71442.5,-9.87,-11.81,-11.81,0,*5E
1484319944.73,40805,6.25,71440.5,-9.87,-11.67,-11.73,0,*5A
1484319945.98,40806,6.25,71444.0,-9.85,-11.73,-11.73,0,*5E
1484319947.23,40807,6.25,71444.8,-9.85,-11.85,-11.81,0,*5B
1484319948.49,40808,6.25,71446.3,-9.85,-11.81,-11.67,0,*58
1484319949.76,40809,6.25,71442.8,-9.87,-11.73,-11.67,0,*56
1484319951.01,40810,6.25,71444.3,-9.85,-11.81,-11.81,0,*59
1484319952.27,40811,6.25,71444.8,-9.85,-11.67,-11.67,0,*58
1484319953.53,40812,6.25,71442.5,-9.85,-11.67,-11.73,0,*5E
1484319954.8,40813,6.25,71444.3,-9.87,-11.73,-11.73,0,*58
1484319956.05,40814,6.25,71440.8,-9.85,-11.81,-11.81,0,*5D
1484319957.3,40815,6.25,71444.8,-9.85,-11.81,-11.81,0,*5C
1484319958.55,40816,6.25,71440.3,-9.85,-11.81,-11.81,0,*5F
1484319959.8,40817,6.25,71444.0,-9.85,-11.85,-11.81,0,*5A
1484319961.07,40818,6.25,71442.5,-9.87,-11.73,-11.81,0,*5E
1484319962.33,40819,6.25,71440.0,-9.85,-11.67,-11.81,0,*58
1484319963.58,40820,6.19,71440.5,-9.85,-11.85,-11.81,0,*5E
1484319964.85,40821,6.25,71446.0,-9.87,-11.81,-11.85,0,*5D
1484319966.11,40822,6.19,71442.5,-9.85,-11.85,-11.85,0,*58
1484319967.36,40823,6.25,71442.8,-9.85,-11.81,-11.85,0,*5D
1484319968.61,40824,6.25,71440.5,-9.85,-11.81,-11.81,0,*5E
1484319969.89,40825,6.25,71440.5,-9.87,-11.73,-11.73,0,*5D
1484319971.16,40826,6.25,71442.3,-9.87,-11.73,-11.81,0,*53
1484319972.43,40827,6.25,71444.5,-9.87,-11.85,-11.81,0,*5B
1484319973.71,40828,6.25,71440.0,-9.87,-11.81,-11.93,0,*53
1484319974.99,40829,6.25,71446.0,-9.87,-11.81,-11.85,0,*55
1484319976.26,40830,6.25,71446.3,-9.87,-11.81,-11.73,0,*54
1484319977.54,40831,6.25,71444.8,-9.87,-11.73,-11.67,0,*5D
1484319978.81,40832,6.25,71444.8,-9.87,-11.73,-11.81,0,*56
1484319980.09,40833,6.25,71444.0,-9.87,-11.73,-11.85,0,*53
1484319981.34,40834,6.25,71444.0,-9.85,-11.81,-11.85,0,*5B
1484319982.62,40835,6.25,71444.8,-9.87,-11.81,-11.85,0,*58
1484319983.87,40836,6.25,71444.3,-9.85,-11.81,-11.81,0,*5D
1484319985.14,40837,6.25,71446.5,-9.87,-11.81,-11.85,0,*5A
1484319986.42,40838,6.25,71446.8,-9.87,-11.81,-11.85,0,*55
1484319987.69,40839,6.25,71442.0,-9.87,-11.81,-11.85,0,*54
1484319988.94,40840,6.25,71440.3,-9.85,-11.81,-11.85,0,*58
1484319990.22,40841,6.25,71446.8,-9.87,-11.81,-11.85,0,*5B
1484319991.47,40842,6.25,71446.8,-9.89,-11.73,-11.77,0,*56
1484319992.72,40843,6.25,71442.5,-9.89,-11.73,-11.77,0,*57
1484319993.98,40844,6.25,71442.3,-9.89,-11.77,-11.73,0,*50
1484319995.23,40845,6.25,71440.3,-9.89,-11.73,-11.67,0,*50
1484319996.48,40846,6.25,71442.3,-9.89,-11.73,-11.73,0,*56
1484319997.74,40847,6.25,71446.5,-9.89,-11.73,-11.73,0,*57
1484319998.99,40848,6.25,71442.0,-9.89,-11.73,-11.73,0,*58
1484320000.27,40849,6.25,71440.8,-9.87,-11.63,-11.67,0,*53
1484320001.55,40850,6.25,71440.5,-9.87,-11.67,-11.73,0,*5A
1484320002.84,40851,6.25,71442.5,-9.87,-11.67,-11.55,0,*5F
1484320004.12,40852,6.25,71440.0,-9.87,-11.63,-11.67,0,*59
1484320005.4,40853,6.25,71438.8,-9.87,-11.81,-11.67,0,*54
1484320006.67,40854,6.25,71442.3,-9.87,-11.73,-11.67,0,*5E
1484320007.95,40855,6.25,71446.8,-9.87,-11.73,-11.67,0,*5F
1484320009.23,40856,6.25,71444.5,-9.87,-11.81,-11.73,0,*54
1484320010.5,40857,6.25,71444.5,-9.87,-11.85,-11.81,0,*5C
1484320011.78,40858,6.25,71442.0,-9.87,-11.85,-11.85,0,*57
1484320013.05,40859,6.25,71444.3,-9.87,-11.73,-11.81,0,*5B
1484320014.33,40860,6.25,71440.3,-9.87,-11.67,-11.73,0,*59
1484320015.62,40861,6.25,71446.0,-9.87,-11.67,-11.67,0,*5D
1484320016.9,40862,6.25,71448.3,-9.87,-11.63,-11.67,0,*5A
1484320018.18,40863,6.25,71444.8,-9.87,-11.73,-11.73,0,*5F
1484320019.43,40864,6.25,71446.3,-9.89,-11.85,-11.85,0,*56
1484320020.69,40865,6.25,71442.0,-9.89,-11.73,-11.73,0,*57
1484320021.97,40866,6.25,71440.8,-9.87,-11.67,-11.67,0,*5A
1484320023.25,40867,6.25,71440.5,-9.87,-11.67,-11.67,0,*5B
1484320024.5,40868,6.25,71444.0,-9.89,-11.85,-11.77,0,*57
1484320025.76,40869,6.25,71444.0,-9.89,-11.89,-11.77,0,*5A
1484320027.01,40870,6.25,71442.0,-9.89,-11.97,-11.85,0,*50
1484320028.27,40871,6.25,71444.0,-9.89,-11.77,-11.73,0,*56
1484320029.54,40872,6.25,71446.3,-9.87,-11.73,-11.73,0,*5F
1484320030.83,40873,6.25,71446.3,-9.87,-11.67,-11.67,0,*5E
1484320032.11,40874,6.25,71446.3,-9.87,-11.63,-11.67,0,*5D
1484320033.39,40875,6.25,71442.5,-9.87,-11.73,-11.67,0,*5D
1484320034.66,40876,6.25,71444.0,-9.87,-11.73,-11.73,0,*5B
1484320035.94,40877,6.25,71448.0,-9.87,-11.73,-11.81,0,*57
1484320037.19,40878,6.25,71444.5,-9.89,-11.85,-11.85,0,*5B
1484320038.45,40879,6.25,71446.8,-9.89,-11.89,-11.89,0,*5A
1484320039.71,40880,6.25,71444.5,-9.89,-11.85,-11.85,0,*5C
1484320040.96,40881,6.25,71440.3,-9.89,-11.73,-11.77,0,*59
1484320042.21,40882,6.25,71444.5,-9.89,-11.77,-11.77,0,*5E
1484320043.47,40883,6.25,71446.8,-9.89,-11.77,-11.77,0,*5F
1484320044.72,40884,6.25,71444.0,-9.89,-11.97,-11.89,0,*57
1484320045.98,40885,6.25,71450.0,-9.89,-11.89,-11.85,0,*55
1484320047.23,40886,6.25,71448.8,-9.89,-11.73,-11.73,0,*5A
1484320048.51,40887,6.25,71448.5,-9.91,-11.73,-11.73,0,*52
1484320049.8,40888,6.25,71444.3,-9.91,-11.67,-11.67,0,*5D
1484320051.05,40889,6.25,71448.8,-9.89,-11.67,-11.59,0,*58
1484320052.31,40890,6.25,71446.3,-9.89,-11.59,-11.67,0,*50
1484320053.57,40891,6.25,71448.5,-9.89,-11.67,-11.67,0,*5C
1484320054.83,40892,6.25,71446.8,-9.89,-11.77,-11.77,0,*5F
1484320056.08,40893,6.25,71450.5,-9.89,-11.77,-11.77,0,*5E
1484320057.33,40894,6.19,71446.3,-9.89,-11.73,-11.77,0,*5D
1484320058.58,40895,6.25,71446.8,-9.89,-11.77,-11.77,0,*58
1484320059.84,40896,6.25,71448.8,-9.89,-11.77,-11.73,0,*5F
1484320061.09,40897,6.25,71448.8,-9.89,-11.73,-11.73,0,*5A
1484320062.35,40898,6.19,71446.8,-9.89,-11.73,-11.73,0,*55
1484320063.6,40899,6.25,71450.5,-9.89,-11.77,-11.77,0,*54
1484320064.85,40900,6.25,71450.5,-9.89,-11.77,-11.73,0,*51
1484320066.11,40901,6.25,71448.0,-9.89,-11.77,-11.77,0,*54
1484320067.36,40902,6.25,71450.5,-9.89,-11.85,-11.85,0,*57
1484320068.64,40903,6.25,71448.5,-9.91,-11.73,-11.73,0,*5F
1484320069.9,40904,6.25,71448.8,-9.89,-11.67,-11.73,0,*54
1484320071.15,40905,6.25,71448.5,-9.89,-11.77,-11.73,0,*54
1484320072.4,40906,6.25,71448.0,-9.89,-11.73,-11.77,0,*57
1484320073.68,40907,6.25,71450.8,-9.91,-11.77,-11.77,0,*5B
1484320074.94,40908,6.25,71450.0,-9.89,-11.59,-11.67,0,*50
1484320076.2,40909,6.25,71450.0,-9.89,-11.67,-11.67,0,*5C
1484320077.48,40910,6.25,71452.5,-9.91,-11.73,-11.77,0,*59
1484320078.74,40911,6.25,71452.3,-9.89,-11.59,-11.67,0,*58
1484320080.02,40912,6.25,71454.3,-9.91,-11.59,-11.59,0,*5F
1484320081.28,40913,6.25,71454.3,-9.89,-11.59,-11.59,0,*57
1484320082.56,40914,6.25,71456.8,-9.91,-11.59,-11.59,0,*59
1484320083.82,40915,6.25,71454.0,-9.89,-11.67,-11.67,0,*51
1484320085.08,40916,6.25,71452.3,-9.89,-11.67,-11.59,0,*5F
1484320086.34,40917,6.25,71452.5,-9.89,-11.59,-11.59,0,*53
1484320087.6,40918,6.25,71456.3,-9.89,-11.55,-11.59,0,*50
1484320088.86,40919,6.25,71454.5,-9.89,-11.67,-11.67,0,*5D
1484320090.12,40920,6.25,71452.5,-9.89,-11.67,-11.67,0,*57
1484320091.37,40921,6.25,71448.0,-9.89,-11.73,-11.73,0,*56
1484320092.65,40922,6.25,71452.8,-9.91,-11.59,-11.73,0,*54
1484320093.91,40923,6.25,71454.0,-9.89,-11.59,-11.59,0,*54
1484320095.17,40924,6.25,71454.5,-9.89,-11.67,-11.59,0,*5E
1484320096.43,40925,6.25,71456.0,-9.89,-11.59,-11.67,0,*5F
1484320097.69,40926,6.25,71454.5,-9.89,-11.67,-11.67,0,*51
1484320098.95,40927,6.25,71452.8,-9.89,-11.59,-11.59,0,*50
1484320100.23,40928,6.25,71450.0,-9.87,-11.63,-11.63,0,*51
1484320101.52,40929,6.25,71450.8,-9.87,-11.55,-11.63,0,*55
1484320102.78,40930,6.25,71452.8,-9.89,-11.59,-11.59,0,*56
1484320104.04,40931,6.25,71448.3,-9.89,-11.67,-11.59,0,*5A
1484320105.29,40932,6.25,71452.5,-9.89,-11.59,-11.59,0,*54
1484320106.55,40933,6.25,71452.0,-9.89,-11.59,-11.59,0,*55
1484320107.81,40934,6.25,71454.5,-9.89,-11.67,-11.59,0,*5F
1484320109.07,40935,6.25,71456.3,-9.89,-11.67,-11.67,0,*53
1484320110.33,40936,6.25,71456.8,-9.89,-11.67,-11.67,0,*50
1484320111.59,40937,6.25,71456.0,-9.89,-11.59,-11.59,0,*51
1484320112.84,40938,6.25,71452.0,-9.89,-11.55,-11.59,0,*52
1484320114.13,40939,6.25,71458.5,-9.87,-11.55,-11.63,0,*54